Location: *
(39.7084°S, 90.4927°E)
Time: 13:32:52
(UTC+00:00)

Daily predictions for brighter satellites

Satellite Brightness Start Highest point End
(mag) Time Altitude Azimuth Time Altitude Azimuth Time Altitude Azimuth
Abrixas rocket 2.4 12:02:40 10° SW 12:05:32 42° SSE 12:06:10 36° ESE
Okean 1 Rocket 4.0 12:03:01 10° NNW 12:07:18 49° W 12:11:42 10° S
ATLAS 3B R/B 3.0 12:00:08 10° NNW 12:07:20 57° ENE 12:13:07 17° SE
Cosmos 2266 Rocket 3.9 12:01:11 10° S 12:07:20 72° E 12:13:22 10° NNE
Cosmos 1733 3.1 12:04:41 10° N 12:08:35 85° E 12:12:33 10° S
ERBS 2.3 12:05:28 10° NW 12:08:53 69° NE 12:10:15 33° ESE
MOS 1 Rocket 4.2 12:05:49 10° NE 12:10:45 36° ESE 12:15:45 10° S
YAOGAN 6 2.5 12:08:32 19° SSE 12:10:57 56° E 12:14:25 10° N
Lacrosse 5 4.0 12:12:13 10° SSW 12:14:04 12° S 12:15:09 11° SSE
CZ-2C R/B 3.4 12:10:49 10° NE 12:15:11 28° ESE 12:19:37 10° S
ARGOS Delta rocket 3.9 12:12:22 18° SSE 12:15:24 44° E 12:19:37 10° N
GEOS 3 Rocket 3.7 12:11:06 10° NNE 12:16:21 82° NW 12:21:33 10° SW
Cosmos 1544 Rocket 4.0 12:14:10 10° NNE 12:18:21 40° E 12:19:54 30° SE
Cosmos 2322 Rocket 3.7 12:13:32 10° SW 12:18:48 39° WNW 12:23:59 10° N
Envisat 2.9 12:14:18 10° SSE 12:19:29 83° ENE 12:24:36 10° NNW
NOAA 12 4.0 12:17:45 10° SSE 12:23:04 66° ENE 12:28:19 10° N
Cosmos 1354 Rocket 4.2 12:20:25 10° NNW 12:25:43 76° WSW 12:30:41 12° SSE
Cosmos 1758 3.8 12:23:13 10° NNE 12:26:30 38° ENE 12:26:30 38° ENE
ISS -3.8 12:26:02 10° SW 12:29:28 68° SE 12:29:34 68° SE
SL-24 R/B 3.7 12:27:19 10° NNE 12:31:19 89° WSW 12:35:05 10° SSW
Cosmos 773 Rocket 4.4 12:28:43 10° S 12:33:41 40° ESE 12:33:55 40° ESE
Meteor 1-22 Rocket 4.5 12:28:37 10° NNW 12:34:11 71° W 12:40:04 10° S
Meteor 2-14 Rocket 4.4 12:35:26 10° S 12:41:34 60° E 12:47:39 10° NNE
Cosmos 2292 Rocket 4.4 12:38:41 10° SSW 12:41:52 35° W 12:44:39 10° NNW
COSMOS 2428 2.7 12:37:53 10° SSW 12:43:33 55° ESE 12:45:29 38° ENE
Meteor 2-21 4.4 12:37:57 10° S 12:44:11 68° E 12:50:23 10° NNE
Cosmos 2297 Rocket 3.9 12:40:51 10° NNE 12:42:27 16° NE 12:42:27 16° NE
NOAA 11 4.3 12:44:30 45° ESE 12:45:30 51° E 12:50:49 10° N
Cosmos 2322 3.7 12:39:48 10° SSW 12:45:35 87° WNW 12:51:19 10° NNE
Cosmos 2344 4.5 12:35:01 10° SSW 12:49:16 68° SE 12:57:43 17° NE
Cosmos 2237 Rocket 4.0 12:47:22 10° S 12:48:57 17° SSE 12:48:57 17° SSE
Cosmos 2219 Rocket 2.0 12:46:51 10° SSW 12:52:32 72° ESE 12:55:12 32° NE
Nadezhda 2 Rocket 4.3 12:49:14 10° S 12:55:26 77° E 13:01:37 10° NNE
Cosmos 2360 Rocket 3.7 12:50:19 10° SW 12:55:28 37° WNW 13:00:35 10° N
Cosmos 2333 4.4 12:51:59 10° SSW 12:57:38 71° WNW 13:03:12 10° NNE
Cosmos 1553 Rocket 3.9 13:00:25 10° N 13:06:35 66° E 13:07:21 60° SE
Okean O Rocket 3.9 13:04:00 10° SSW 13:07:30 22° WSW 13:10:58 10° WNW
Cosmos 2333 Rocket 2.3 13:03:32 10° SSW 13:09:15 77° WNW 13:13:25 19° NNE
Timation 2 Rocket 3.9 13:05:32 10° NNW 13:11:45 83° ENE 13:12:57 62° SE
Cosmos 1244 Rocket 4.4 13:06:58 10° S 13:13:17 88° W 13:19:28 10° N
Cosmos 1626 4.3 13:10:12 10° SSW 13:13:24 26° W 13:16:34 10° NNW
Lacrosse 4 Rocket 3.7 13:10:17 10° N 13:11:02 15° N 13:11:02 15° N
CENTAUR R/B 4.3 13:12:52 10° WNW 13:19:38 30° SW 13:23:48 18° S
Meteor 2-10 4.3 13:20:30 10° N 13:25:51 76° NW 13:25:51 76° NW
Cosmos 2227 Rocket 4.2 13:23:03 10° N 13:24:14 16° N 13:24:14 16° N
Cosmos 2219 4.4 13:33:21 10° NNW 13:36:25 34° NNW 13:36:25 34° NNW
Aureole 3 Rocket 4.3 13:34:17 10° NNW 13:40:09 54° WNW 13:40:09 54° WNW
CZ-2C R/B 4.0 13:50:38 10° NNW 13:55:19 34° W 14:00:06 10° SSW
ATLAS 3B R/B 4.1 13:51:42 10° WNW 13:58:25 35° SW 14:00:25 31° SSW
CZ-4C R/B 3.7 21:42:35 46° ESE 21:42:35 46° ESE 21:47:44 10° SE
USA 234 4.3 21:52:32 10° E 21:58:10 37° SSE 21:58:10 37° SSE
Cosmos 2227 Rocket 4.3 22:20:04 16° SSE 22:22:46 22° SE 22:27:04 10° ENE
Okean O Rocket 3.5 22:22:59 10° NE 22:26:45 27° ESE 22:27:23 26° SE
MOS 1-B 4.3 22:38:44 10° NNE 22:44:33 87° ESE 22:45:01 77° S
BREEZE-M R/B 4.4 22:46:51 55° SSW 22:47:08 55° SSW 22:58:10 10° ESE
Cosmos 1766 4.3 22:56:46 42° NE 22:56:46 42° NE 22:59:36 10° NNE
CZ-4B R/B 3.3 22:56:09 10° NNE 23:01:37 74° ESE 23:05:38 20° S
Cosmos 1842 3.8 23:01:38 10° N 23:05:33 59° E 23:09:31 10° SSE
CZ-3B R/B 4.5 22:28:39 10° SW 23:05:34 75° NW 23:11:46 10° NNE
Cosmos 1975 Rocket 3.6 23:01:21 10° N 23:05:48 61° E 23:10:19 10° SSE
USA 267 3.8 23:01:30 10° SE 23:07:30 39° SSW 23:07:59 39° SW
Cosmos 1697 Rocket 3.9 23:07:19 10° N 23:12:35 42° ENE 23:17:53 10° SE
Meteor 1-22 Rocket 4.4 23:10:20 10° S 23:16:33 86° E 23:22:39 10° N
Lacrosse 4 Rocket 2.2 23:18:49 41° NNW 23:18:49 41° NNW 23:22:11 10° N
H-2A R/B 3.3 23:14:41 10° N 23:17:40 48° NNW 23:17:40 48° NNW
Lacrosse 5 rocket 1.3 23:19:37 60° N 23:20:07 71° NE 23:24:04 10° SE
Cosmos 1470 4.3 23:19:14 10° S 23:22:56 36° ESE 23:26:34 10° NE
Cosmos 1455 Rocket 3.7 23:18:54 10° S 23:23:18 56° E 23:27:37 10° NNE
Cosmos 2297 Rocket 2.4 23:19:47 20° SSW 23:23:46 73° ESE 23:29:26 10° NNE
Radarsat Rocket 4.4 23:19:45 10° N 23:27:38 70° WNW 23:34:39 10° SSW
CZ-4C R/B 3.4 23:27:50 33° WSW 23:29:30 36° SW 23:35:54 10° SSE
Nadezhda 4 Rocket 3.9 23:25:28 10° NNW 23:31:44 69° W 23:38:03 10° S
Envisat 2.9 23:27:47 10° NNE 23:32:54 83° WNW 23:38:05 10° SSW
Cosmos 1733 3.5 23:40:02 44° W 23:40:02 44° W 23:43:35 10° NNW
USA 234 3.2 23:34:30 10° NE 23:41:04 77° NW 23:45:32 23° SW
NOAA 12 4.0 23:36:53 10° NNE 23:42:10 89° W 23:47:30 10° SSW
Cosmos 1271 Rocket 2.7 23:38:56 10° NNW 23:42:37 51° WSW 23:46:23 10° S
Cosmos 921 Rocket 3.2 23:46:34 10° NW 23:50:36 43° WSW 23:54:40 10° S
COSMO-SKYMED 1 3.4 23:46:32 10° SSE 23:50:53 54° E 23:55:09 10° N
Cosmos 1340 Rocket 3.5 23:49:41 10° S 23:53:41 55° ESE 23:57:40 10° NNE
FengYun 1-2 T 4.4 23:48:36 10° NNE 23:54:08 78° ESE 23:59:48 10° S
